Weather History for KLXV - October, 2010

Change the Weather History Date:

Thursday, October 21, 2010

  Actual Average Record
Temperature  
Mean Temperature 39 °F -  
Max Temperature 54 °F 48 °F 68 °F (2003)
Min Temperature 24 °F 22 °F 3 °F (1990)
Degree Days  
Heating Degree Days 26 30  
Month to date heating degree days 472 567  
Since 1 July heating degree days 1527 1865  
Cooling Degree Days 0 0  
Month to date cooling degree days 0 0  
Year to date cooling degree days 0 0  
Moisture  
Dew Point 28 °F    
Average Humidity 60    
Maximum Humidity 92    
Minimum Humidity 28    
Precipitation  
Precipitation 0.06 in 0.03 in 0.16 in (1986)
Month to date precipitation 0.48 0.61  
Year to date precipitation 11.26 10.64  
Sea Level Pressure  
Sea Level Pressure 29.94 in    
Wind  
Wind Speed 4 mph (SSE)    
Max Wind Speed 20 mph    
Max Gust Speed 26 mph    
Visibility 10 miles    
Events Rain , Snow    
T = Trace of Precipitation, MM = Missing Value Source: NWS Daily Summary

Daily Weather History Graph

Daily Weather History Graph

Search for Another Location

Airport or City:

Trip Planner

Search our weather history database for the weather conditions in past years. The results will help you decide how hot, cold, wet, or windy it might be!

Date:

Astronomy

Oct. 21, 2010 Rise Set
Actual Time 7:21 AM MDT 6:17 PM MDT
Civil Twilight 6:53 AM MDT 6:45 PM MDT
Nautical Twilight 6:22 AM MDT 7:16 PM MDT
Astronomical Twilight 5:51 AM MDT 7:47 PM MDT
Moon 5:19 PM MDT (10/21) 6:03 AM MDT (10/21)
Length of Visible Light 11h 51m
Length of Day
10h 56m
Waxing Gibbous, 98% of the Moon is Illuminated
Oct 21
Waxing Gibbous
Oct 22
Full
Oct 30
Last Quarter
Nov 5
New
Nov 13
First Quarter

Hourly Weather History & Observations

Time (MDT) Temp. Windchill Dew Point Humidity Pressure Visibility Wind Dir Wind Speed Gust Speed Precip Events Conditions
12:53 AM 34.0 °F - 19.9 °F 56% 29.96 in 10.0 mi Calm Calm - N/A   Clear
1:53 AM 34.0 °F 29.8 °F 19.0 °F 54% 29.96 in 10.0 mi ESE 4.6 mph - N/A   Clear
2:53 AM 27.0 °F - 18.0 °F 69% 29.98 in 10.0 mi Calm Calm - N/A   Clear
3:53 AM 26.1 °F 20.5 °F 18.0 °F 71% 29.94 in 10.0 mi ENE 4.6 mph - N/A   Clear
4:53 AM 27.0 °F 21.6 °F 18.0 °F 69% 29.96 in 10.0 mi NE 4.6 mph - N/A   Clear
5:53 AM 28.0 °F - 19.0 °F 69% 29.97 in 10.0 mi Calm Calm - N/A   Clear
6:53 AM 27.0 °F 21.6 °F 19.0 °F 72% 29.99 in 10.0 mi East 4.6 mph - N/A   Clear
7:53 AM 26.1 °F - 19.0 °F 75% 30.01 in 10.0 mi Calm Calm - N/A   Clear
8:53 AM 35.1 °F - 21.0 °F 57% 29.96 in 10.0 mi Calm Calm - N/A   Clear
9:53 AM 37.0 °F - 21.9 °F 54% 29.97 in 10.0 mi Calm Calm - N/A   Clear
10:53 AM 45.0 °F - 21.9 °F 40% 29.89 in 10.0 mi Calm Calm - N/A   Partly Cloudy
11:53 AM 50.0 °F - 27.0 °F 41% 29.84 in 10.0 mi Variable 3.5 mph - N/A   Scattered Clouds
12:53 PM 53.1 °F - 26.1 °F 35% 29.79 in 10.0 mi SSW 9.2 mph 18.4 mph N/A   Overcast
1:53 PM 53.1 °F - 21.0 °F 29% 29.75 in 10.0 mi ESE 8.1 mph - N/A   Mostly Cloudy
2:53 PM 50.0 °F - 27.0 °F 41% 29.80 in 10.0 mi SSW 12.7 mph 20.7 mph N/A   Overcast
3:53 PM 45.0 °F 38.9 °F 30.9 °F 58% 29.84 in 10.0 mi SSW 12.7 mph 21.9 mph N/A   Mostly Cloudy
4:53 PM 44.1 °F 39.5 °F 32.0 °F 63% 29.83 in 10.0 mi SSW 8.1 mph - N/A   Mostly Cloudy
5:53 PM 41.0 °F 35.8 °F 32.0 °F 70% 29.84 in 10.0 mi SW 8.1 mph - N/A   Overcast
6:53 PM 39.0 °F 32.3 °F 34.0 °F 82% 29.87 in 10.0 mi SW 10.4 mph - 0.00 in Rain Light Rain
7:27 PM 37.4 °F 31.4 °F 35.6 °F 93% 30.08 in 9.0 mi SW 8.1 mph - 0.01 in Rain Light Rain
7:53 PM 37.0 °F 32.4 °F 34.0 °F 89% 29.89 in 10.0 mi South 5.8 mph - 0.02 in Rain Light Rain
8:12 PM 35.6 °F - 35.6 °F 100% 30.09 in 10.0 mi Calm Calm - 0.00 in Rain Light Rain
8:53 PM 37.0 °F - 34.0 °F 89% 29.83 in 10.0 mi Calm Calm - 0.01 in Rain Light Rain
9:03 PM 37.4 °F - 33.8 °F 87% 30.09 in 10.0 mi Calm Calm - 0.00 in Rain Light Rain
9:23 PM 35.6 °F 31.7 °F 33.8 °F 93% 30.08 in 10.0 mi NNE 4.6 mph - 0.00 in Rain Light Rain
9:30 PM 35.6 °F 30.7 °F 33.8 °F 93% 30.08 in 10.0 mi NNE 5.8 mph - 0.00 in Rain Light Rain
9:53 PM 35.1 °F - 34.0 °F 96% 29.83 in 10.0 mi Calm Calm - 0.00 in Rain Light Rain
10:08 PM 35.6 °F - 33.8 °F 93% 30.08 in 10.0 mi Calm Calm - 0.00 in Rain Light Rain
10:42 PM 35.6 °F - 33.8 °F 93% 30.08 in 8.0 mi Calm Calm - 0.00 in Rain Light Rain
10:53 PM 35.1 °F - 33.1 °F 92% 29.76 in 4.0 mi Calm Calm - 0.02 in Rain Rain
10:59 PM 33.8 °F - 33.8 °F 100% 30.07 in 4.0 mi Calm Calm - 0.01 in Rain Light Rain
11:06 PM 33.8 °F - 33.8 °F 100% 30.07 in 8.0 mi Calm Calm - 0.01 in Rain Light Rain
11:26 PM 33.8 °F - 33.8 °F 100% 30.07 in 8.0 mi Calm Calm - 0.01 in Snow Light Snow
11:49 PM 33.8 °F 30.8 °F 33.8 °F 100% 30.06 in 10.0 mi North 3.5 mph - 0.01 in   Overcast
11:53 PM 34.0 °F 31.0 °F 33.1 °F 96% 29.71 in 10.0 mi NNE 3.5 mph - 0.01 in   Overcast